ChubuSat-2 (41338 NORAD) Tracking and Keplerian Element Data

This shows tracking and keplerian element data for the satellite.

Feedback or suggestion? Click here.




ElementValue
Catalog41338
NameChubuSat-2
Epoch Orbit37055
Epoch Day321.81591442
Epoch Year2022
RAAN126.9945
Inclination31.0018
Eccentricity0.0012974
Argument of Perigee236.072
Mean Anonmoly123.8682
Mean Motion15.02038851
Decay Rate2.141E-05
L11 41338U 16012B 22321.81591442 .00002141 00000-0 15262-3 0 9990
L22 41338 31.0018 126.9945 0012974 236.0720 123.8682 15.02038851370556



Live tracking and technical data element details for ChubuSat-2 (NORAD 41338). ChubuSat-2 can be tracked NOW for your location showing map with azimuth and elevation plus other details from your city location.







IsCatalogInMostPopularTable: catalog: 41338, numindb: 509
Update: records affected: 1



GetName: 41338 ChubuSat-2

Hit Count: updated at: Fri, 02 Dec 2022 13:06:52 GMT